Hourly Data Report for October 28, 2013

All times are specified in Local Standard Time (LST). Add 1 hour to adjust for Daylight Saving Time where and when it is observed.

KUGAARUK CLIMATE
NUNAVUT

68°32'15.060" N
89°47'47.020" W
15.80 m
2303094
71407
NBB

Download Data

Hourly Data (October 2013)
Hourly Data Report for October 28, 2013
Temp Definition
°C
Dew Point Temp Definition
°C
Rel Hum Definition
%
Wind Dir Definition
10's deg

Wind Spd Definition
km/h
Visibility Definition
km
Stn Press Definition
kPa
Hmdx Definition


Wind Chill Definition


Weather Definition


TIME
00:00 -13.1 -16.0 79 32 26   100.37   -23 LegendNANA
01:00 -14.0 -15.9 85 2 33   100.40   -25 LegendNANA
02:00 -15.3 -17.2 85 2 33   100.47   -27 LegendNANA
03:00 -16.4 -18.8 82 34 26   100.55   -27 LegendNANA
04:00 -15.6 -18.2 80 34 28   100.60   -26 LegendNANA
05:00 -15.6 -17.9 82 32 22   100.64   -25 LegendNANA
06:00 -16.3 -19.1 79 34 22   100.67   -26 LegendNANA
07:00 -16.4 -18.8 82 33 24   100.71   -27 LegendNANA
08:00 -17.0 -19.0 84 31 24   100.74   -28 LegendNANA
09:00 -17.5 -19.7 83 31 28   100.74   -29 LegendNANA
10:00 -17.5 -19.7 83 30 22   100.74   -28 LegendNANA
11:00 -17.7 -19.9 83 30 28   100.73   -29 LegendNANA
12:00 -17.7 -20.0 82 29 24   100.75   -28 LegendNANA
13:00 -17.2 -19.4 83 29 22   100.77   -27 LegendNANA
14:00 -17.1 -19.3 83 29 26   100.76   -28 LegendNANA
15:00 -17.2 -19.3 84 29 19   100.78   -27 LegendNANA
16:00 -17.1 -19.3 83 30 22   100.79   -27 LegendNANA
17:00 -17.3 -19.5 83 29 20   100.82   -27 LegendNANA
18:00 -16.9 -19.1 83 29 19   100.81   -26 LegendNANA
19:00 -16.7 -18.9 83 30 20   100.79   -26 LegendNANA
20:00 -16.7 -18.8 84 28 17   100.79   -26 LegendNANA
21:00 -15.8 -17.8 85 30 13   100.77   -23 LegendNANA
22:00 -15.6 -17.8 83 34 15   100.77   -24 LegendNANA
23:00 -15.7 -17.9 83 35 13   100.78   -23 LegendNANA

Notes on Data Quality.

Legend

  • E = Estimated
  • M = Missing
  • NA = Not Available
  • ‡ = Partner data that is not subject to review by the National Climate Archives
Date modified: